Zurück zum Katalog

FENGYUN 1C DEB

AktivSSO
NORAD 33637·DEBRIS·🇨🇳 China

Gestartet May 10, 1999 von Taiyuan Satellite Launch Center

Loading…

Nächste Überflüge (nächste 24 Stunden)

TLE

VeraltetSource: Space-Track

Epoche: Aug 25, 2026, 22:44 UTC

1 33637U 99025DDW 26237.94751058  .00002783  00000-0  89240-3 0  9992
2 33637  98.4710 284.4989 0082030 106.9211 254.0989 14.38335740685194

Verfolge FENGYUN 1C DEB in Echtzeit mit AllMySat

Download on the App Store